[[{"header":{"parameterUnit":"m.s-1","parameterCategory":2,"la1":30.2991,"la2":30.254,"lo1":-89.0895,"lo2":-89.0444,"dy":0.0017,"dx":0.0017,"nx":28,"ny":28,"refTime":"2024-10-17T09:00:00:Z","depth":"0","parameterNumber":2,"parameterNumberName":"U-component_of_CURRENTS"},"data":[0,0,0,0,0,0,0,0,0,0,0,0,0,0,0,0,0,0,0,0,0,0,0,0,0,0,0,0,0,0,0,0,0,0,0,0,0,0,0,0,0,0,0,0,0,0,0,0,0,0,0,0,0,0,0,0,0,0,0.2123,0.2124,0,0.2142,0.2142,0.2142,0.2136,0.2136,0.2136,0.2135,0.2125,0.2125,0.2125,0,0,0,0,0,0,0,0,0,0,0,0,0,0.2074,0.2075,0.2123,0.2124,0.2124,0.2142,0.2142,0.2142,0.2136,0.2136,0.2136,0.2135,0.2125,0.2125,0.2125,0,0,0,0,0,0,0,0,0,0,0,0,0,0.2092,0.2075,0.2123,0.2125,0.2126,0.2142,0.2142,0.2142,0.2136,0.2136,0.2135,0.2135,0.2125,0.2125,0.2125,0.2129,0,0,0.2124,0.2124,0,0,0,0,0,0,0,0,0.2091,0.2094,0.2124,0.2125,0.2126,0.2138,0.2121,0.2137,0.2136,0.213,0.2135,0.2135,0.2128,0.2128,0.2129,0.2129,0.2128,0.2124,0.2124,0.2124,0.2124,0,0,0,0,0,0,0,0.209,0.2093,0.2128,0.2125,0.2126,0.2122,0.2124,0.2124,0.2128,0.213,0.213,0.2136,0.2128,0.2129,0.2129,0.2128,0.2124,0.2124,0.2124,0.2124,0.2158,0.2159,0,0,0,0,0,0,0.2093,0.2092,0.2128,0.2129,0.211,0.2124,0.2126,0.2133,0.2129,0.2129,0.2136,0.2136,0.213,0.2129,0.2128,0.2157,0.2124,0.2124,0.2124,0.2157,0.2158,0.2159,0,0,0,0,0,0,0.2092,0.2096,0.2127,0.2113,0.2117,0.2125,0.2133,0.2133,0.2138,0.2134,0.2133,0.2141,0.2129,0.2129,0.2136,0.2155,0.2124,0.2123,0.2156,0.2157,0.2159,0.2199,0,0,0,0,0,0,0.2091,0.2096,0.21,0.2113,0.2118,0.2143,0.2133,0.2134,0.2143,0.2142,0.2138,0.2136,0.2129,0.2137,0.2136,0.2155,0.2123,0.2154,0.2156,0.2158,0.2196,0.2201,0.2206,0,0,0,0,0,0.2089,0.2096,0.21,0.2104,0.2123,0.2143,0.2145,0.2148,0.2143,0.215,0.2148,0.2136,0.2148,0.2137,0.2136,0.2155,0.2153,0.2156,0.2158,0.2194,0.22,0.2206,0,0,0,0,0,0,0.2072,0.2097,0.2101,0.2114,0.2131,0.2143,0.215,0.2152,0.2156,0.2155,0.2146,0.2145,0.216,0.2153,0.2141,0.2172,0.2151,0.2153,0.2178,0.2184,0.2189,0.2195,0.2123,0,0,0,0,0,0.2072,0.2087,0.2108,0.2118,0.2129,0.214,0.2147,0.2153,0.216,0.2162,0.2159,0.216,0.2169,0.2172,0.2175,0.2189,0.2197,0.2202,0.2207,0.2211,0.2217,0.2247,0.2256,0.2167,0.2167,0.2166,0,0,0.2067,0.2084,0.2091,0.2116,0.2128,0.2148,0.2143,0.2161,0.2177,0.216,0.2175,0.2176,0.2177,0.2195,0.2202,0.2191,0.2244,0.2214,0.2217,0.2221,0.2251,0.2259,0.2267,0.2168,0.2168,0.2168,0,0,0.2069,0.2082,0.2097,0.2116,0.2143,0.2154,0.2161,0.218,0.2188,0.2204,0.2201,0.2215,0.2219,0.2231,0.2235,0.2269,0.2269,0.227,0.23,0.233,0.2338,0.2344,0.2377,0.2387,0.2273,0.2273,0.2273,0,0.2059,0.2085,0.2103,0.2126,0.2144,0.2159,0.218,0.2194,0.2211,0.2225,0.2213,0.2242,0.2238,0.2274,0.2286,0.2281,0.2298,0.2276,0.2337,0.2344,0.235,0.2382,0.2392,0.2275,0.2275,0.2275,0.2274,0,0.2077,0.2098,0.211,0.2146,0.2166,0.2189,0.2216,0.2235,0.2244,0.2257,0.2291,0.2293,0.2312,0.2316,0.2309,0.2357,0.2356,0.2339,0.2321,0.2361,0.2393,0.2402,0.2278,0.2278,0.2277,0.2276,0,0,0.2047,0.211,0.2113,0.2135,0.2182,0.2198,0.2236,0.2275,0.2302,0.2317,0.2354,0.237,0.2375,0.2382,0.2382,0.2405,0.2463,0.2393,0.2393,0.2425,0.2539,0.2575,0.2589,0.2458,0.246,0.2461,0.2547,0,0.2053,0.2098,0.2131,0.2169,0.2195,0.2232,0.2267,0.2304,0.2332,0.237,0.239,0.242,0.24,0.2416,0.2438,0.2459,0.2489,0.2442,0.2496,0.2498,0.2525,0.2601,0.259,0.2668,0.2556,0.2558,0.2559,0,0.2055,0.2088,0.213,0.2192,0.2206,0.2232,0.2295,0.2329,0.2392,0.2417,0.2456,0.2473,0.2521,0.249,0.2554,0.2527,0.2539,0.2548,0.2551,0.2577,0.2552,0.2608,0.2689,0.2669,0.2573,0.2572,0.2571,0,0.2023,0.2083,0.2117,0.2137,0.2209,0.2235,0.2273,0.2339,0.2377,0.245,0.2488,0.2539,0.2576,0.26,0.2629,0.2596,0.2699,0.2653,0.2699,0.2701,0.2698,0.2698,0.2765,0.27,0.2699,0.2699,0.2699,0,0.2017,0.2036,0.2103,0.2121,0.2159,0.2218,0.2266,0.2316,0.2395,0.2451,0.2506,0.2569,0.2606,0.2667,0.2669,0.2737,0.2737,0.273,0.2737,0.2714,0.2714,0.2699,0.2667,0.2702,0.2702,0.2701,0.27,0,0.197,0.2018,0.2051,0.2124,0.2144,0.2168,0.2251,0.2292,0.2377,0.2455,0.2485,0.2606,0.2704,0.2746,0.2808,0.2804,0.2803,0.2863,0.2842,0.2845,0.2854,0.2824,0.2773,0.2673,0.2929,0.293,0.2932,0,0.1948,0.1965,0.2032,0.2053,0.2083,0.2129,0.2169,0.2263,0.2317,0.248,0.2522,0.266,0.2759,0.2891,0.2934,0.2987,0.287,0.298,0.2911,0.2886,0.2857,0.2712,0.2618,0.2923,0.2924,0.2925,0.2926,0,0.1905,0.1929,0.1962,0.2004,0.2042,0.208,0.2148,0.2188,0.2315,0.2409,0.2556,0.2658,0.2843,0.2934,0.303,0.3043,0.2889,0.3001,0.2979,0.2878,0.2719,0.2616,0.2833,0.2934,0.2933,0.2933,0.2932,0.2932,0.1861,0.1868,0.1916,0.195,0.199,0.2024,0.2036,0.2131,0.222,0.2351,0.2511,0.266,0.2885,0.3046,0.304,0.308,0.2962,0.3026,0.2999,0.2859,0.2741,0.299,0.3093,0.3093,0.3093,0.3093,0.3093,0,0.18,0.1826,0.1861,0.1897,0.191,0.1954,0.2015,0.2028,0.2106,0.2289,0.242,0.2704,0.287,0.301,0.3176,0.3112,0.2913,0.3033,0.2828,0.2734,0.2992,0.2973,0.3051,0.3051,0.3051,0.3051,0.3051,0.3051,0.177,0.1778,0.1801,0.1804,0.1827,0.1812,0.1825,0.1873,0.1982,0.2161,0.2338,0.2521,0.2909,0.3248,0.3287,0.3184,0.2894,0.2821,0.2712,0.2941,0.2937,0.2933,0.2909,0.2972,0.2971,0.2365,0.2361,0.2358]},{"header":{"parameterUnit":"m.s-1","parameterCategory":2,"la1":30.2991,"la2":30.254,"lo1":-89.0895,"lo2":-89.0444,"dy":0.0017,"dx":0.0017,"nx":28,"ny":28,"refTime":"2024-10-17T09:00:00:Z","depth":"0","parameterNumber":3,"parameterNumberName":"V-component_of_CURRENTS"},"data":[0,0,0,0,0,0,0,0,0,0,0,0,0,0,0,0,0,0,0,0,0,0,0,0,0,0,0,0,0,0,0,0,0,0,0,0,0,0,0,0,0,0,0,0,0,0,0,0,0,0,0,0,0,0,0,0,0,0,-0.033,-0.033,0,-0.038,-0.038,-0.0381,-0.0412,-0.0412,-0.0412,-0.0412,-0.047,-0.0472,-0.0473,0,0,0,0,0,0,0,0,0,0,0,0,0,-0.0304,-0.0304,-0.033,-0.033,-0.0331,-0.0379,-0.038,-0.0381,-0.0412,-0.0412,-0.0412,-0.0412,-0.047,-0.0472,-0.0473,0,0,0,0,0,0,0,0,0,0,0,0,0,-0.0331,-0.0304,-0.033,-0.0351,-0.0354,-0.0379,-0.038,-0.0381,-0.0412,-0.0412,-0.0412,-0.0412,-0.0469,-0.0471,-0.0474,-0.0484,0,0,-0.048,-0.0481,0,0,0,0,0,0,0,0,-0.033,-0.0332,-0.0348,-0.035,-0.0353,-0.0389,-0.0393,-0.0416,-0.0412,-0.0391,-0.0412,-0.0412,-0.0443,-0.0448,-0.0458,-0.0487,-0.049,-0.0481,-0.0482,-0.0483,-0.0483,0,0,0,0,0,0,0,-0.0328,-0.0331,-0.035,-0.0348,-0.0351,-0.0373,-0.0377,-0.0397,-0.0416,-0.0393,-0.0395,-0.0399,-0.0445,-0.0456,-0.0459,-0.0491,-0.048,-0.0482,-0.0484,-0.0485,-0.0524,-0.0524,0,0,0,0,0,0,-0.0318,-0.0329,-0.0349,-0.0352,-0.034,-0.0374,-0.0378,-0.0378,-0.0416,-0.0422,-0.0399,-0.04,-0.0452,-0.0457,-0.0462,-0.0462,-0.0483,-0.0485,-0.0486,-0.0524,-0.0524,-0.0524,0,0,0,0,0,0,-0.0317,-0.0319,-0.0347,-0.0341,-0.0346,-0.0373,-0.0374,-0.0379,-0.0387,-0.0421,-0.0427,-0.0401,-0.0452,-0.0458,-0.0474,-0.0465,-0.0486,-0.0488,-0.0525,-0.0524,-0.0524,-0.0472,0,0,0,0,0,0,-0.0316,-0.0318,-0.0315,-0.034,-0.0346,-0.0354,-0.0374,-0.038,-0.0389,-0.0392,-0.0425,-0.0431,-0.0453,-0.047,-0.0476,-0.0469,-0.049,-0.0525,-0.0525,-0.0524,-0.0475,-0.047,-0.0467,0,0,0,0,0,-0.0315,-0.0304,-0.0314,-0.0317,-0.034,-0.0353,-0.0358,-0.0379,-0.0389,-0.0388,-0.0411,-0.0429,-0.0471,-0.0472,-0.0478,-0.0472,-0.0525,-0.0525,-0.0524,-0.0476,-0.0471,-0.0467,0,0,0,0,0,0,-0.0289,-0.0307,-0.0319,-0.0314,-0.033,-0.0358,-0.0359,-0.0375,-0.0393,-0.0394,-0.0427,-0.0434,-0.0445,-0.0466,-0.0465,-0.0482,-0.0501,-0.0502,-0.0462,-0.0458,-0.0454,-0.044,-0.0491,0,0,0,0,0,-0.0282,-0.028,-0.0303,-0.0299,-0.0305,-0.0332,-0.034,-0.0354,-0.0374,-0.0382,-0.0406,-0.043,-0.0449,-0.0458,-0.0479,-0.0487,-0.0513,-0.0488,-0.0484,-0.048,-0.0473,-0.0507,-0.0505,-0.0522,-0.0522,-0.0522,0,0,-0.0272,-0.0281,-0.028,-0.0294,-0.0309,-0.0307,-0.0337,-0.0343,-0.0342,-0.0385,-0.039,-0.0418,-0.0448,-0.0458,-0.0464,-0.0473,-0.0489,-0.048,-0.0476,-0.0471,-0.0506,-0.0504,-0.0503,-0.0522,-0.0522,-0.0522,0,0,-0.0245,-0.0257,-0.0246,-0.0256,-0.0272,-0.0287,-0.0286,-0.0311,-0.0322,-0.0333,-0.0362,-0.0382,-0.0413,-0.0431,-0.0445,-0.0433,-0.0468,-0.044,-0.0408,-0.044,-0.0439,-0.0438,-0.0467,-0.0469,-0.0437,-0.0437,-0.0437,0,-0.0231,-0.0221,-0.0245,-0.0237,-0.0237,-0.0273,-0.0259,-0.0276,-0.0303,-0.0308,-0.0326,-0.0371,-0.0399,-0.0409,-0.0406,-0.0423,-0.0447,-0.0422,-0.0435,-0.0435,-0.0435,-0.0464,-0.0467,-0.0434,-0.0435,-0.0435,-0.0435,0,-0.0197,-0.0191,-0.0184,-0.0184,-0.0189,-0.0183,-0.0206,-0.0213,-0.0233,-0.0254,-0.0273,-0.0316,-0.0341,-0.0355,-0.0377,-0.0388,-0.0407,-0.0427,-0.0444,-0.043,-0.0462,-0.0466,-0.0431,-0.0432,-0.0432,-0.0433,0,0,-0.0157,-0.0159,-0.0155,-0.0144,-0.0159,-0.0154,-0.0154,-0.0161,-0.0155,-0.0196,-0.0195,-0.0239,-0.0269,-0.0286,-0.0321,-0.0351,-0.0376,-0.0384,-0.0387,-0.0408,-0.0446,-0.0466,-0.0473,-0.04,-0.04,-0.0401,-0.0468,0,-0.0122,-0.0091,-0.0104,-0.0073,-0.0057,-0.0084,-0.0078,-0.0091,-0.0114,-0.0124,-0.0176,-0.0192,-0.024,-0.0251,-0.0289,-0.0352,-0.0385,-0.0356,-0.0461,-0.0464,-0.0479,-0.0477,-0.0487,-0.0549,-0.0472,-0.0473,-0.0473,0,-0.008,-0.0065,-0.0029,-0.0011,-0.0006,0.0003,0.0012,0.0011,-0.0019,-0.0038,-0.0073,-0.0115,-0.016,-0.0205,-0.0308,-0.0287,-0.036,-0.0415,-0.042,-0.0457,-0.0491,-0.0552,-0.056,-0.0735,-0.048,-0.048,-0.0479,0,-0.0032,-0.0008,0.0025,0.0029,0.0039,0.0051,0.0053,0.0037,0.0047,0.0013,0.0016,-0.0055,-0.0081,-0.0181,-0.0294,-0.0303,-0.041,-0.0439,-0.0526,-0.0528,-0.0567,-0.0572,-0.0753,-0.0514,-0.0514,-0.0514,-0.0513,0,0.0015,0.0044,0.005,0.0069,0.0114,0.0099,0.0134,0.0124,0.0115,0.0141,0.0063,0.007,-0.0076,-0.0153,-0.0271,-0.0406,-0.0396,-0.0518,-0.0547,-0.0549,-0.0551,-0.073,-0.0835,-0.0516,-0.0516,-0.0515,-0.0515,0,0.0064,0.0066,0.0108,0.0126,0.0138,0.0166,0.0192,0.0218,0.0197,0.0228,0.0224,0.016,0.0061,-0.0089,-0.0248,-0.0365,-0.0611,-0.0551,-0.0541,-0.0567,-0.0814,-0.0914,-0.1143,-0.1222,-0.0661,-0.0662,-0.0663,0,0.0092,0.0117,0.0154,0.0184,0.0193,0.023,0.0262,0.0259,0.029,0.0294,0.0322,0.024,0.0205,-0.0042,-0.0268,-0.0482,-0.065,-0.064,-0.0663,-0.0831,-0.0964,-0.105,-0.1106,-0.0697,-0.0698,-0.0699,-0.07,0,0.0148,0.0155,0.0189,0.0246,0.0287,0.0336,0.038,0.0424,0.0432,0.0462,0.0495,0.0469,0.0235,0.0021,-0.0286,-0.0453,-0.079,-0.0663,-0.0847,-0.1016,-0.1114,-0.12,-0.065,-0.0707,-0.0706,-0.0705,-0.0705,-0.0705,0.0189,0.0219,0.0258,0.0315,0.0368,0.0439,0.0491,0.0551,0.0621,0.0685,0.0643,0.0636,0.0296,-0.012,-0.0376,-0.0854,-0.0857,-0.0991,-0.1101,-0.1172,-0.1255,-0.0714,-0.0796,-0.0796,-0.0796,-0.0796,-0.0796,0,0.0242,0.0273,0.0327,0.0394,0.0458,0.0473,0.0571,0.063,0.0733,0.0799,0.0827,0.0654,0.0223,-0.022,-0.0844,-0.1199,-0.1349,-0.1418,-0.1554,-0.1588,-0.1114,-0.112,-0.1264,-0.1264,-0.1264,-0.1264,-0.1263,-0.1263,0.0272,0.0331,0.0353,0.046,0.0508,0.0598,0.0659,0.076,0.0829,0.0908,0.091,0.0873,0.0527,-0.0631,-0.1446,-0.1649,-0.1916,-0.2001,-0.2119,-0.181,-0.1778,-0.1748,-0.1778,-0.2058,-0.2059,-0.2541,-0.2546,-0.255]}],[{"header":{"parameterUnit":"m.s-1","parameterCategory":2,"la1":30.2991,"la2":30.254,"lo1":-89.0895,"lo2":-89.0444,"dy":0.0017,"dx":0.0017,"nx":28,"ny":28,"refTime":"2024-10-17T09:00:00:Z","depth":"2","parameterNumber":2,"parameterNumberName":"U-component_of_CURRENTS"},"data":[0,0,0,0,0,0,0,0,0,0,0,0,0,0,0,0,0,0,0,0,0,0,0,0,0,0,0,0,0,0,0,0,0,0,0,0,0,0,0,0,0,0,0,0,0,0,0,0,0,0,0,0,0,0,0,0,0,0,0.2103,0.2103,0,0.2122,0.2122,0.2122,0.2118,0.2118,0.2118,0.2118,0.2111,0.2111,0.2111,0,0,0,0,0,0,0,0,0,0,0,0,0,0.2054,0.2054,0.2103,0.2104,0.2104,0.2122,0.2122,0.2122,0.2118,0.2118,0.2118,0.2118,0.2111,0.2111,0.2111,0,0,0,0,0,0,0,0,0,0,0,0,0,0.2072,0.2055,0.2103,0.2106,0.2106,0.2122,0.2122,0.2122,0.2118,0.2118,0.2118,0.2118,0.2111,0.2111,0.2111,0.2115,0,0,0.2111,0.2111,0,0,0,0,0,0,0,0,0.2071,0.2074,0.2105,0.2106,0.2106,0.212,0.2103,0.2119,0.2118,0.2111,0.2118,0.2118,0.2113,0.2113,0.2114,0.2115,0.2114,0.2111,0.2111,0.2111,0.2111,0,0,0,0,0,0,0,0.207,0.2073,0.2108,0.2105,0.2106,0.2103,0.2105,0.2106,0.2111,0.2112,0.2112,0.2118,0.2113,0.2114,0.2114,0.2114,0.2111,0.2111,0.2111,0.211,0.2148,0.2149,0,0,0,0,0,0,0.2073,0.2072,0.2108,0.2109,0.209,0.2105,0.2107,0.2114,0.2112,0.2112,0.2118,0.2118,0.2114,0.2114,0.2114,0.2144,0.2111,0.211,0.211,0.2147,0.2148,0.2149,0,0,0,0,0,0,0.2072,0.2076,0.2107,0.2092,0.2097,0.2106,0.2114,0.2114,0.212,0.2117,0.2116,0.2124,0.2114,0.2114,0.2123,0.2143,0.211,0.211,0.2145,0.2147,0.2148,0.2189,0,0,0,0,0,0,0.207,0.2075,0.208,0.2093,0.2098,0.2123,0.2114,0.2115,0.2125,0.2125,0.2122,0.2121,0.2114,0.2123,0.2123,0.2142,0.211,0.2144,0.2146,0.2148,0.2186,0.2191,0.2196,0,0,0,0,0,0.2068,0.2076,0.208,0.2085,0.2104,0.2124,0.2126,0.213,0.2126,0.2133,0.2132,0.2121,0.2135,0.2124,0.2123,0.2143,0.2143,0.2145,0.2148,0.2184,0.219,0.2196,0,0,0,0,0,0,0.2053,0.2077,0.2082,0.2095,0.2112,0.2124,0.2132,0.2134,0.2139,0.2139,0.2131,0.213,0.2147,0.214,0.2128,0.216,0.2139,0.2141,0.2167,0.2173,0.2178,0.2183,0.211,0,0,0,0,0,0.2054,0.2069,0.2089,0.2101,0.2111,0.2122,0.213,0.2136,0.2144,0.2146,0.2144,0.2147,0.2156,0.216,0.2164,0.2178,0.2186,0.2192,0.2197,0.2201,0.2207,0.2237,0.2245,0.2156,0.2156,0.2156,0,0,0.205,0.2067,0.2073,0.2099,0.2111,0.213,0.2126,0.2144,0.216,0.2144,0.2161,0.2163,0.2164,0.2184,0.2191,0.218,0.2234,0.2204,0.2208,0.2211,0.224,0.2249,0.2257,0.2158,0.2158,0.2158,0,0,0.2053,0.2067,0.2082,0.21,0.2127,0.2138,0.2146,0.2164,0.2173,0.219,0.2188,0.2203,0.2208,0.222,0.2225,0.226,0.2259,0.2262,0.2292,0.2321,0.2329,0.2335,0.2367,0.2376,0.2264,0.2265,0.2265,0,0.2045,0.207,0.2088,0.211,0.2129,0.2143,0.2165,0.2179,0.2196,0.2211,0.22,0.2231,0.2228,0.2264,0.2276,0.2272,0.2289,0.2267,0.2328,0.2334,0.2341,0.2371,0.2381,0.2267,0.2267,0.2266,0.2266,0,0.2063,0.2085,0.2097,0.2131,0.2152,0.2174,0.2201,0.2221,0.2231,0.2245,0.2279,0.2282,0.2302,0.2307,0.23,0.2348,0.2347,0.233,0.2312,0.2352,0.2382,0.2391,0.227,0.2269,0.2268,0.2268,0,0,0.2036,0.2097,0.21,0.2122,0.2168,0.2184,0.2222,0.226,0.2288,0.2304,0.2341,0.2359,0.2365,0.2372,0.2373,0.2396,0.2453,0.2384,0.2384,0.2414,0.2526,0.2554,0.2566,0.2449,0.245,0.2452,0.2533,0,0.2042,0.2086,0.2119,0.2157,0.2182,0.2218,0.2254,0.2291,0.2319,0.2357,0.2377,0.2409,0.239,0.2406,0.2429,0.2449,0.2478,0.2433,0.2484,0.2485,0.2504,0.2578,0.2384,0.2443,0.2542,0.2544,0.2545,0,0.2045,0.2077,0.2119,0.2179,0.2194,0.2219,0.2282,0.2316,0.2378,0.2404,0.2443,0.2461,0.2509,0.2479,0.2542,0.2516,0.2527,0.2536,0.2539,0.2556,0.253,0.2417,0.2455,0.256,0.2559,0.2558,0.2556,0,0.2014,0.2074,0.2107,0.2127,0.2197,0.2224,0.2261,0.2326,0.2365,0.2437,0.2475,0.2526,0.2563,0.2586,0.2615,0.2583,0.2683,0.2638,0.2675,0.2676,0.2517,0.2503,0.2683,0.2683,0.2683,0.2683,0.2682,0,0.2009,0.2029,0.2094,0.2112,0.215,0.2208,0.2256,0.2306,0.2384,0.2438,0.2494,0.2555,0.2592,0.2652,0.2654,0.2715,0.2719,0.2705,0.2709,0.2528,0.2515,0.2612,0.2603,0.2686,0.2685,0.2684,0.2684,0,0.1964,0.2011,0.2044,0.2116,0.2136,0.216,0.2243,0.2283,0.2367,0.2444,0.2474,0.2591,0.2685,0.2726,0.2785,0.2779,0.2818,0.2831,0.2627,0.2608,0.2777,0.2769,0.2881,0.2883,0.2884,0.2886,0.2887,0,0.1944,0.196,0.2026,0.2047,0.2077,0.2123,0.2163,0.2256,0.2308,0.2467,0.2507,0.2641,0.2729,0.2852,0.2867,0.2908,0.2894,0.2741,0.2649,0.281,0.2803,0.2792,0.2782,0.2446,0.2444,0.2441,0.244,0,0.1902,0.1926,0.1958,0.2,0.2038,0.2075,0.2142,0.218,0.2304,0.2392,0.253,0.2623,0.2774,0.276,0.2836,0.2817,0.2721,0.2705,0.2922,0.2446,0.2412,0.2401,0.2403,0.2421,0.2423,0.2424,0.2425,0.2426,0.186,0.1867,0.1914,0.1947,0.1987,0.2019,0.203,0.2114,0.2195,0.2291,0.2452,0.2516,0.2599,0.2632,0.2592,0.2555,0.2727,0.2583,0.2583,0.2587,0.2542,0.2515,0.2535,0.2537,0.2539,0.2541,0.2543,0,0.1798,0.1826,0.186,0.1895,0.1904,0.1951,0.2009,0.2,0.2059,0.2171,0.2268,0.2178,0.2225,0.2277,0.2227,0.2282,0.2187,0.2168,0.2007,0.2032,0.2053,0.1972,0.1817,0.1814,0.1811,0.1809,0,0,0.1769,0.1774,0.1796,0.1796,0.1821,0.1798,0.181,0.1819,0.1866,0.1879,0.1898,0.208,0.2223,0.1964,0.1984,0.1883,0.1914,0.1812,0.2408,0.2243,0.2259,0.2332,0.2244,0,0,0,0,0]},{"header":{"parameterUnit":"m.s-1","parameterCategory":2,"la1":30.2991,"la2":30.254,"lo1":-89.0895,"lo2":-89.0444,"dy":0.0017,"dx":0.0017,"nx":28,"ny":28,"refTime":"2024-10-17T09:00:00:Z","depth":"2","parameterNumber":3,"parameterNumberName":"V-component_of_CURRENTS"},"data":[0,0,0,0,0,0,0,0,0,0,0,0,0,0,0,0,0,0,0,0,0,0,0,0,0,0,0,0,0,0,0,0,0,0,0,0,0,0,0,0,0,0,0,0,0,0,0,0,0,0,0,0,0,0,0,0,0,0,-0.022,-0.0221,0,-0.0269,-0.027,-0.0271,-0.0303,-0.0303,-0.0303,-0.0303,-0.0363,-0.0364,-0.0366,0,0,0,0,0,0,0,0,0,0,0,0,0,-0.0194,-0.0195,-0.022,-0.0221,-0.0221,-0.0269,-0.027,-0.0271,-0.0302,-0.0303,-0.0303,-0.0303,-0.0362,-0.0364,-0.0366,0,0,0,0,0,0,0,0,0,0,0,0,0,-0.0221,-0.0195,-0.022,-0.0242,-0.0245,-0.0269,-0.027,-0.0271,-0.0302,-0.0303,-0.0303,-0.0303,-0.0362,-0.0364,-0.0366,-0.0376,0,0,-0.0373,-0.0374,0,0,0,0,0,0,0,0,-0.022,-0.0222,-0.0239,-0.0241,-0.0244,-0.0279,-0.0283,-0.0306,-0.0302,-0.0281,-0.0303,-0.0303,-0.0335,-0.034,-0.0349,-0.0378,-0.0381,-0.0373,-0.0374,-0.0375,-0.0376,0,0,0,0,0,0,0,-0.0218,-0.0221,-0.024,-0.0239,-0.0242,-0.0264,-0.0268,-0.0288,-0.0307,-0.0283,-0.0285,-0.029,-0.0337,-0.0347,-0.0351,-0.0382,-0.0373,-0.0375,-0.0376,-0.0377,-0.0418,-0.0418,0,0,0,0,0,0,-0.0208,-0.0219,-0.0239,-0.0242,-0.0231,-0.0264,-0.0268,-0.0268,-0.0307,-0.0313,-0.0289,-0.0291,-0.0343,-0.0348,-0.0353,-0.0356,-0.0375,-0.0377,-0.0379,-0.0418,-0.0418,-0.0418,0,0,0,0,0,0,-0.0207,-0.0209,-0.0237,-0.0231,-0.0236,-0.0264,-0.0264,-0.0269,-0.0279,-0.0311,-0.0318,-0.0294,-0.0344,-0.035,-0.0367,-0.0359,-0.0378,-0.038,-0.0419,-0.0418,-0.0418,-0.0369,0,0,0,0,0,0,-0.0206,-0.0208,-0.0206,-0.023,-0.0236,-0.0245,-0.0264,-0.027,-0.0281,-0.0283,-0.0317,-0.0323,-0.0344,-0.0363,-0.0369,-0.0362,-0.0382,-0.0419,-0.0418,-0.0418,-0.037,-0.0367,-0.0363,0,0,0,0,0,-0.0205,-0.0195,-0.0205,-0.0208,-0.0231,-0.0244,-0.0249,-0.027,-0.0281,-0.0281,-0.0304,-0.0322,-0.0364,-0.0365,-0.0371,-0.0365,-0.0419,-0.0419,-0.0418,-0.0372,-0.0367,-0.0363,0,0,0,0,0,0,-0.0182,-0.0199,-0.021,-0.0206,-0.0222,-0.0249,-0.0251,-0.0267,-0.0286,-0.0288,-0.032,-0.0327,-0.0339,-0.0359,-0.0359,-0.0376,-0.0394,-0.0395,-0.0357,-0.0353,-0.0349,-0.0335,-0.0384,0,0,0,0,0,-0.0175,-0.0174,-0.0196,-0.0193,-0.0198,-0.0225,-0.0233,-0.0247,-0.0267,-0.0276,-0.03,-0.0324,-0.0343,-0.0353,-0.0373,-0.0383,-0.0407,-0.0383,-0.038,-0.0376,-0.037,-0.0402,-0.0401,-0.0416,-0.0416,-0.0416,0,0,-0.0166,-0.0175,-0.0175,-0.0188,-0.0203,-0.0201,-0.023,-0.0238,-0.0237,-0.0279,-0.0285,-0.0313,-0.0343,-0.0353,-0.036,-0.0368,-0.0385,-0.0376,-0.0373,-0.0368,-0.0401,-0.04,-0.0399,-0.0416,-0.0416,-0.0416,0,0,-0.0141,-0.0153,-0.0143,-0.0153,-0.0169,-0.0184,-0.0183,-0.0208,-0.0219,-0.0231,-0.0259,-0.028,-0.0311,-0.0328,-0.0342,-0.0331,-0.0366,-0.0339,-0.0308,-0.0339,-0.0338,-0.0338,-0.0366,-0.0369,-0.0336,-0.0336,-0.0336,0,-0.0129,-0.0119,-0.0142,-0.0135,-0.0136,-0.0171,-0.0158,-0.0174,-0.0201,-0.0206,-0.0226,-0.027,-0.0298,-0.0307,-0.0304,-0.0321,-0.0346,-0.0321,-0.0334,-0.0334,-0.0334,-0.0364,-0.0367,-0.0333,-0.0333,-0.0334,-0.0334,0,-0.0097,-0.0091,-0.0085,-0.0086,-0.009,-0.0085,-0.0107,-0.0114,-0.0135,-0.0155,-0.0175,-0.0217,-0.0242,-0.0256,-0.0278,-0.0289,-0.0308,-0.0326,-0.0343,-0.033,-0.0362,-0.0366,-0.033,-0.0331,-0.0331,-0.0332,0,0,-0.0061,-0.0061,-0.0059,-0.0047,-0.0062,-0.0057,-0.0057,-0.0063,-0.0058,-0.0099,-0.0098,-0.0142,-0.0172,-0.0189,-0.0224,-0.0252,-0.0279,-0.0286,-0.0289,-0.031,-0.0348,-0.0367,-0.0374,-0.0302,-0.0302,-0.0302,-0.037,0,-0.0028,0.0002,-0.001,0.002,0.0036,0.001,0.0017,0.0004,-0.0018,-0.0029,-0.008,-0.0096,-0.0144,-0.0156,-0.0193,-0.0254,-0.0287,-0.0258,-0.0362,-0.0364,-0.038,-0.0379,-0.0347,-0.0405,-0.0374,-0.0375,-0.0375,0,0.001,0.0026,0.0061,0.0081,0.0086,0.0095,0.0104,0.0104,0.0075,0.0055,0.002,-0.0021,-0.0066,-0.0111,-0.0212,-0.0192,-0.0264,-0.0318,-0.0322,-0.0359,-0.0391,-0.0414,-0.0414,-0.0383,-0.0382,-0.0382,-0.0381,0,0.0056,0.008,0.0113,0.0118,0.0129,0.014,0.0143,0.0128,0.0139,0.0104,0.0107,0.0037,0.0011,-0.0088,-0.02,-0.0208,-0.0314,-0.0342,-0.0428,-0.043,-0.0432,-0.0433,-0.0416,-0.0416,-0.0416,-0.0416,-0.0415,0,0.01,0.0129,0.0136,0.0155,0.0199,0.0185,0.022,0.0211,0.0203,0.0229,0.0152,0.0159,0.0014,-0.0061,-0.0177,-0.031,-0.03,-0.0421,-0.0448,-0.0414,-0.0413,-0.0417,-0.0417,-0.0418,-0.0418,-0.0417,-0.0417,0,0.0146,0.0149,0.0191,0.021,0.0222,0.0249,0.0277,0.0303,0.0282,0.0313,0.0309,0.0246,0.0148,0.0,-0.0156,-0.0271,-0.0402,-0.0454,-0.0402,-0.0423,-0.0505,-0.0501,-0.056,-0.0561,-0.0562,-0.0563,-0.0564,0,0.0173,0.0197,0.0234,0.0264,0.0274,0.031,0.0343,0.0341,0.0374,0.0378,0.0406,0.0325,0.0289,0.0046,-0.017,-0.0381,-0.0409,-0.0499,-0.0514,-0.0499,-0.052,-0.0514,-0.0509,-0.0499,-0.0499,-0.0499,-0.0499,0,0.0226,0.0233,0.0267,0.0323,0.0365,0.0415,0.046,0.0504,0.0514,0.0544,0.0575,0.0549,0.0322,0.0124,-0.0177,-0.0322,-0.0465,-0.0509,-0.0505,-0.0466,-0.0446,-0.0465,-0.0461,-0.05,-0.05,-0.05,-0.05,-0.05,0.0265,0.0295,0.0334,0.0391,0.0444,0.0516,0.0568,0.0631,0.0701,0.0763,0.0718,0.0691,0.0449,0.0083,-0.0184,-0.0474,-0.0469,-0.0563,-0.0561,-0.0558,-0.0537,-0.0521,-0.0585,-0.0585,-0.0586,-0.0586,-0.0586,0,0.0318,0.0346,0.0401,0.0468,0.0536,0.0548,0.0647,0.0713,0.0818,0.0865,0.0889,0.0692,0.0446,0.0156,-0.0265,-0.0521,-0.0538,-0.0604,-0.0559,-0.0556,-0.0554,-0.0532,-0.0579,-0.058,-0.058,-0.0581,0,0,0.0348,0.0408,0.0431,0.0538,0.0585,0.0682,0.0744,0.0853,0.0913,0.0986,0.0973,0.0912,0.055,0.0261,-0.0091,-0.0338,-0.0393,-0.0391,-0.037,-0.0275,-0.027,-0.0505,-0.0464,0,0,0,0,0]}],[{"header":{"parameterUnit":"m.s-1","parameterCategory":2,"la1":30.2991,"la2":30.254,"lo1":-89.0895,"lo2":-89.0444,"dy":0.0017,"dx":0.0017,"nx":28,"ny":28,"refTime":"2024-10-17T09:00:00:Z","depth":"4","parameterNumber":2,"parameterNumberName":"U-component_of_CURRENTS"},"data":[0,0,0,0,0,0,0,0,0,0,0,0,0,0,0,0,0,0,0,0,0,0,0,0,0,0,0,0,0,0,0,0,0,0,0,0,0,0,0,0,0,0,0,0,0,0,0,0,0,0,0,0,0,0,0,0,0,0,0.1465,0.1466,0,0.1525,0.1525,0.1526,0.1574,0.1574,0.1575,0.1576,0.1642,0.1643,0.1645,0,0,0,0,0,0,0,0,0,0,0,0,0,0.1377,0.1378,0.1465,0.1466,0.1467,0.1525,0.1525,0.1526,0.1574,0.1574,0.1575,0.1576,0.1642,0.1643,0.1645,0,0,0,0,0,0,0,0,0,0,0,0,0,0.1422,0.1378,0.1465,0.1499,0.1503,0.1524,0.1525,0.1526,0.1573,0.1574,0.1575,0.1576,0.1642,0.1643,0.1645,0.1636,0,0,0.165,0.1651,0,0,0,0,0,0,0,0,0.1419,0.1425,0.1493,0.1497,0.1501,0.1544,0.1519,0.1564,0.1573,0.1545,0.1576,0.1577,0.1611,0.1615,0.1621,0.1639,0.1642,0.165,0.1651,0.1652,0.1653,0,0,0,0,0,0,0,0.1416,0.1422,0.1487,0.1494,0.1499,0.1506,0.1514,0.1527,0.157,0.1547,0.1551,0.1561,0.1613,0.1619,0.1623,0.1643,0.165,0.1652,0.1653,0.1654,0.175,0.1752,0,0,0,0,0,0,0.1412,0.1419,0.1485,0.1489,0.1464,0.1507,0.1515,0.1528,0.157,0.1578,0.156,0.1563,0.1616,0.1621,0.1626,0.1703,0.1652,0.1654,0.1655,0.1749,0.175,0.1752,0,0,0,0,0,0,0.141,0.1418,0.1483,0.1457,0.1466,0.1508,0.1521,0.1529,0.1567,0.158,0.1588,0.1594,0.1617,0.1623,0.1669,0.1703,0.1655,0.1656,0.1747,0.1749,0.1751,0.1804,0,0,0,0,0,0,0.1407,0.1417,0.1438,0.1457,0.1467,0.1516,0.1521,0.1529,0.157,0.1575,0.1611,0.1617,0.1618,0.1666,0.1671,0.1705,0.1658,0.1745,0.1748,0.1751,0.18,0.1807,0.1814,0,0,0,0,0,0.1404,0.1424,0.1438,0.1447,0.1491,0.1517,0.1523,0.1554,0.1571,0.1592,0.1621,0.1617,0.1688,0.1669,0.1674,0.1709,0.1744,0.1747,0.175,0.1797,0.1806,0.1813,0,0,0,0,0,0,0.1397,0.1432,0.1448,0.1479,0.1506,0.1526,0.1554,0.1571,0.1609,0.1625,0.1634,0.1642,0.1694,0.1694,0.1674,0.1746,0.1716,0.172,0.175,0.1758,0.1765,0.1763,0.1659,0,0,0,0,0,0.1404,0.1433,0.146,0.149,0.1506,0.1535,0.1556,0.1577,0.1607,0.1626,0.1651,0.168,0.1706,0.1728,0.1747,0.1785,0.1786,0.1812,0.1819,0.1825,0.1827,0.1856,0.1865,0.1763,0.1763,0.1763,0,0,0.1409,0.1434,0.1452,0.1491,0.1517,0.1545,0.1551,0.1593,0.1624,0.1626,0.1686,0.1706,0.1721,0.1767,0.179,0.1776,0.1857,0.1829,0.1834,0.1833,0.1861,0.187,0.1879,0.1766,0.1765,0.1765,0,0,0.1425,0.1459,0.1485,0.1511,0.1558,0.1574,0.1592,0.1631,0.1662,0.1711,0.1725,0.1766,0.1807,0.1825,0.1838,0.1894,0.189,0.1908,0.1944,0.1973,0.1981,0.1989,0.201,0.2019,0.1913,0.1913,0.1913,0,0.1432,0.1468,0.1497,0.1527,0.1556,0.159,0.1621,0.1652,0.1704,0.1733,0.1741,0.1816,0.1831,0.1882,0.1906,0.1909,0.1924,0.191,0.1981,0.1989,0.1995,0.2015,0.2024,0.1916,0.1916,0.1915,0.1915,0,0.1456,0.1497,0.1517,0.1567,0.1599,0.1635,0.1676,0.172,0.176,0.1789,0.1859,0.1883,0.1927,0.1942,0.1943,0.2005,0.1999,0.1984,0.1958,0.2009,0.2026,0.2035,0.192,0.1919,0.1918,0.1917,0,0,0.1438,0.1518,0.1528,0.1561,0.1627,0.165,0.1712,0.1768,0.1813,0.1868,0.1924,0.1976,0.1997,0.2013,0.2026,0.2054,0.2116,0.2047,0.2047,0.2064,0.2184,0.2075,0.2073,0.2119,0.212,0.2122,0.218,0,0.1451,0.151,0.1551,0.1612,0.1644,0.17,0.1751,0.181,0.1862,0.1924,0.1967,0.2024,0.2022,0.2056,0.2085,0.2111,0.214,0.2101,0.2136,0.2137,0.203,0.208,0.2127,0.2186,0.2188,0.219,0.2191,0,0.1454,0.1498,0.1559,0.164,0.1661,0.1706,0.1794,0.1845,0.1933,0.1977,0.2041,0.2075,0.2141,0.2123,0.2194,0.2175,0.2188,0.2197,0.2199,0.2082,0.2043,0.2124,0.2205,0.2204,0.2203,0.2202,0.2201,0,0.1413,0.1499,0.1551,0.1579,0.1673,0.1722,0.1779,0.1868,0.1918,0.2019,0.2066,0.2139,0.219,0.222,0.2254,0.2235,0.2318,0.2287,0.2199,0.2192,0.2249,0.224,0.233,0.233,0.233,0.233,0.2329,0,0.1395,0.1438,0.1543,0.1569,0.1635,0.1712,0.1789,0.1856,0.1953,0.201,0.2095,0.2143,0.222,0.2273,0.2283,0.2271,0.2344,0.2213,0.2201,0.227,0.2264,0.2255,0.2245,0.2332,0.2331,0.2331,0.233,0,0.1334,0.1407,0.1467,0.1579,0.1618,0.1666,0.1787,0.1834,0.1943,0.2019,0.2058,0.2172,0.2241,0.2299,0.2357,0.23,0.2303,0.228,0.2366,0.2357,0.2149,0.2142,0.2175,0.2171,0.2168,0.2166,0.2164,0,0.1305,0.1335,0.1456,0.1495,0.1552,0.1637,0.1692,0.1814,0.1859,0.2017,0.2038,0.2158,0.2218,0.2207,0.2282,0.2297,0.2272,0.2256,0.2181,0.2148,0.2135,0.2132,0.2128,0.216,0.2159,0.2158,0.2157,0,0.1246,0.1303,0.1355,0.1434,0.1503,0.156,0.1649,0.167,0.1805,0.1922,0.1967,0.201,0.2088,0.2128,0.2166,0.2169,0.2253,0.2225,0.223,0.216,0.213,0.2119,0.2119,0.2148,0.2149,0.215,0.215,0,0.1202,0.122,0.1299,0.1355,0.1434,0.146,0.1517,0.1573,0.1633,0.18,0.1815,0.1945,0.206,0.2065,0.2099,0.21,0.2061,0.1981,0.1998,0.201,0.1931,0.1868,0.18,0,0,0,0,0,0.1147,0.1161,0.1212,0.1265,0.1336,0.138,0.1478,0.1536,0.1666,0.1651,0.1724,0.1786,0.1844,0.1915,0.1883,0.2041,0.2076,0.1996,0.1994,0.2093,0.2105,0.2028,0,0,0,0,0,0,0.1111,0.1156,0.1177,0.1177,0.1196,0.1257,0.1314,0.1402,0.1395,0.1535,0.157,0.1685,0.1763,0.184,0.1849,0.1872,0.1836,0.2083,0.2079,0.2087,0.2097,0.2106,0.2032,0,0,0,0,0]},{"header":{"parameterUnit":"m.s-1","parameterCategory":2,"la1":30.2991,"la2":30.254,"lo1":-89.0895,"lo2":-89.0444,"dy":0.0017,"dx":0.0017,"nx":28,"ny":28,"refTime":"2024-10-17T09:00:00:Z","depth":"4","parameterNumber":3,"parameterNumberName":"V-component_of_CURRENTS"},"data":[0,0,0,0,0,0,0,0,0,0,0,0,0,0,0,0,0,0,0,0,0,0,0,0,0,0,0,0,0,0,0,0,0,0,0,0,0,0,0,0,0,0,0,0,0,0,0,0,0,0,0,0,0,0,0,0,0,0,0.0004,0.0003,0,-0.0039,-0.004,-0.004,-0.0069,-0.0069,-0.0069,-0.0069,-0.0132,-0.0133,-0.0135,0,0,0,0,0,0,0,0,0,0,0,0,0,0.0032,0.0032,0.0004,0.0003,0.0003,-0.0039,-0.004,-0.004,-0.0069,-0.0069,-0.0069,-0.0069,-0.0131,-0.0133,-0.0135,0,0,0,0,0,0,0,0,0,0,0,0,0,0.0007,0.0032,0.0004,-0.0016,-0.0018,-0.0039,-0.004,-0.0041,-0.0069,-0.0069,-0.0069,-0.0069,-0.0131,-0.0133,-0.0135,-0.0146,0,0,-0.0142,-0.0143,0,0,0,0,0,0,0,0,0.0009,0.0006,-0.0013,-0.0015,-0.0017,-0.0048,-0.0053,-0.0076,-0.0069,-0.005,-0.0069,-0.0069,-0.0105,-0.011,-0.0118,-0.0148,-0.0151,-0.0143,-0.0144,-0.0145,-0.0146,0,0,0,0,0,0,0,0.0011,0.0008,-0.0014,-0.0013,-0.0016,-0.0033,-0.0036,-0.0057,-0.0077,-0.0052,-0.0054,-0.0057,-0.0107,-0.0115,-0.012,-0.0152,-0.0143,-0.0145,-0.0146,-0.0147,-0.02,-0.02,0,0,0,0,0,0,0.0019,0.001,-0.0012,-0.0015,-0.0004,-0.0033,-0.0037,-0.0038,-0.0076,-0.0082,-0.0057,-0.0059,-0.0111,-0.0117,-0.0122,-0.0135,-0.0145,-0.0147,-0.0149,-0.02,-0.02,-0.02,0,0,0,0,0,0,0.002,0.0017,-0.0011,-0.0003,-0.0008,-0.0033,-0.0035,-0.0039,-0.005,-0.008,-0.0086,-0.0064,-0.0112,-0.0119,-0.014,-0.0137,-0.0148,-0.015,-0.02,-0.02,-0.02,-0.0161,0,0,0,0,0,0,0.0021,0.0018,0.0018,-0.0003,-0.0008,-0.002,-0.0035,-0.004,-0.0052,-0.0054,-0.0088,-0.0094,-0.0113,-0.0136,-0.0142,-0.0141,-0.0152,-0.02,-0.02,-0.02,-0.0163,-0.016,-0.0158,0,0,0,0,0,0.0022,0.0026,0.0019,0.0016,-0.0006,-0.002,-0.0024,-0.0043,-0.0052,-0.0054,-0.0077,-0.0093,-0.014,-0.0138,-0.0145,-0.0144,-0.02,-0.02,-0.02,-0.0164,-0.0161,-0.0158,0,0,0,0,0,0,0.004,0.0023,0.0015,0.0014,-0.0001,-0.0024,-0.0028,-0.0042,-0.0062,-0.0065,-0.0093,-0.0101,-0.0119,-0.0137,-0.0134,-0.016,-0.0173,-0.0174,-0.0143,-0.014,-0.0138,-0.0124,-0.0154,0,0,0,0,0,0.0044,0.0042,0.0023,0.0022,0.0017,-0.0006,-0.0015,-0.0027,-0.0047,-0.0056,-0.008,-0.0104,-0.0124,-0.0136,-0.0158,-0.0172,-0.0193,-0.0177,-0.0174,-0.0172,-0.0166,-0.0196,-0.0196,-0.02,-0.02,-0.02,0,0,0.0051,0.0042,0.0041,0.0026,0.0013,0.0011,-0.0012,-0.0022,-0.0024,-0.006,-0.0071,-0.0098,-0.0127,-0.0142,-0.0151,-0.0157,-0.0182,-0.0172,-0.017,-0.0165,-0.0196,-0.0195,-0.0195,-0.02,-0.02,-0.02,0,0,0.0067,0.0056,0.006,0.0051,0.0034,0.0022,0.0021,-0.0003,-0.0014,-0.003,-0.0054,-0.0077,-0.0111,-0.0128,-0.0141,-0.0139,-0.0169,-0.0149,-0.0126,-0.0155,-0.0155,-0.0155,-0.018,-0.0183,-0.0147,-0.0147,-0.0147,0,0.0076,0.008,0.0059,0.0061,0.006,0.003,0.0038,0.0022,-0.0005,-0.0011,-0.0028,-0.0075,-0.0102,-0.0116,-0.0116,-0.0133,-0.0155,-0.0132,-0.0151,-0.0152,-0.0152,-0.0179,-0.0182,-0.0145,-0.0146,-0.0146,-0.0146,0,0.0095,0.0097,0.01,0.0095,0.009,0.009,0.0071,0.0061,0.0042,0.0025,0.0002,-0.0038,-0.0064,-0.0079,-0.0098,-0.0114,-0.0129,-0.0144,-0.0155,-0.0149,-0.0178,-0.0182,-0.0143,-0.0143,-0.0144,-0.0144,0,0,0.0117,0.0114,0.0115,0.0125,0.0109,0.0111,0.0108,0.01,0.0102,0.0063,0.0061,0.0016,-0.001,-0.0027,-0.0058,-0.0085,-0.0113,-0.0114,-0.0117,-0.0134,-0.0178,-0.0175,-0.018,-0.0133,-0.0134,-0.0134,-0.0196,0,0.0139,0.0158,0.0148,0.017,0.0181,0.016,0.0164,0.0151,0.013,0.0118,0.0071,0.0054,0.0012,-0.0001,-0.0035,-0.009,-0.0122,-0.0095,-0.0186,-0.0188,-0.0182,-0.0184,-0.0136,-0.0199,-0.02,-0.0201,-0.0201,0,0.0162,0.0174,0.0199,0.0217,0.022,0.0227,0.0233,0.0231,0.0204,0.0186,0.0153,0.0116,0.0073,0.0034,-0.0058,-0.004,-0.0104,-0.0152,-0.0156,-0.0168,-0.0193,-0.0208,-0.0209,-0.0208,-0.0208,-0.0207,-0.0207,0,0.0196,0.0213,0.0239,0.0242,0.0252,0.0262,0.0265,0.025,0.0259,0.0227,0.0228,0.0164,0.0138,0.005,-0.0051,-0.0057,-0.0155,-0.0177,-0.0237,-0.0238,-0.0238,-0.0238,-0.0246,-0.0246,-0.0246,-0.0246,-0.0245,0,0.0225,0.0248,0.0257,0.0272,0.0309,0.0298,0.0328,0.032,0.0313,0.0333,0.0266,0.0265,0.014,0.007,-0.0032,-0.0142,-0.0144,-0.023,-0.0252,-0.0221,-0.0218,-0.0242,-0.024,-0.0248,-0.0247,-0.0247,-0.0246,0,0.0255,0.026,0.0295,0.0314,0.0326,0.035,0.0378,0.0399,0.0383,0.0406,0.0401,0.0338,0.0247,0.0121,-0.0021,-0.0107,-0.0219,-0.026,-0.021,-0.0228,-0.0288,-0.0284,-0.0331,-0.0332,-0.0332,-0.0332,-0.0332,0,0.0271,0.029,0.0329,0.0356,0.0367,0.0401,0.0431,0.0433,0.0456,0.0456,0.0473,0.0399,0.0341,0.0154,0.0005,-0.019,-0.0222,-0.0285,-0.0296,-0.0279,-0.0297,-0.0292,-0.0288,-0.0333,-0.0333,-0.0333,-0.0333,0,0.0304,0.0316,0.0345,0.0399,0.0438,0.0485,0.0523,0.055,0.0559,0.0551,0.0542,0.0443,0.0339,0.0174,0.0021,-0.0121,-0.0246,-0.0289,-0.029,-0.0301,-0.0282,-0.0298,-0.0293,-0.0334,-0.0334,-0.0334,-0.0334,0,0.0329,0.0355,0.0392,0.0441,0.0498,0.0553,0.057,0.0599,0.062,0.0615,0.0612,0.0494,0.0419,0.021,0.0072,-0.007,-0.0115,-0.0168,-0.0176,-0.0177,-0.012,-0.0073,-0.0076,0,0,0,0,0,0.0351,0.0384,0.0432,0.0488,0.0546,0.0577,0.0629,0.0638,0.0654,0.0661,0.0636,0.0542,0.0341,0.0251,0.0112,0.0047,-0.0151,-0.0125,-0.0219,-0.0341,-0.034,-0.03,0,0,0,0,0,0,0.0368,0.0415,0.0437,0.0519,0.0563,0.0629,0.0666,0.0676,0.0671,0.0665,0.0564,0.0503,0.0307,0.0428,0.0111,0.0066,-0.0015,-0.0223,-0.0226,-0.0342,-0.034,-0.0339,-0.0298,0,0,0,0,0]}]]